[[{"header":{"parameterUnit":"m.s-1","parameterCategory":1,"la1":30.2991,"la2":30.254,"lo1":-89.0895,"lo2":-89.0444,"dy":0.0017,"dx":0.0017,"nx":28,"ny":28,"refTime":"2024-10-19T09:00:00:Z","depth":0,"parameterNumber":2,"parameterNumberName":"U-component_of_WINDS"},"data":[0,0,0,0,0,0,0,0,0,0,0,0,0,0,0,0,0,0,0,0,0,0,0,0,0,0,0,0,0,0,0,0,0,0,0,0,0,0,0,0,0,0,0,0,0,0,0,0,0,0,0,0,0,0,0,0,0,0,-3.8871,-3.8871,0,-3.8921,-3.8921,-3.8922,-3.8851,-3.8849,-3.8846,-3.8844,-3.8895,-3.8899,-3.8903,0,0,0,0,0,0,0,0,0,0,0,0,0,-3.8715,-3.8718,-3.8871,-3.8871,-3.8872,-3.8921,-3.8921,-3.8922,-3.8852,-3.8849,-3.8845,-3.8843,-3.8894,-3.8898,-3.8903,0,0,0,0,0,0,0,0,0,0,0,0,0,-3.8776,-3.8719,-3.8871,-3.8843,-3.8841,-3.8921,-3.8922,-3.8922,-3.8852,-3.8848,-3.8845,-3.8841,-3.8893,-3.8898,-3.8904,-3.9013,0,0,-3.8921,-3.8923,0,0,0,0,0,0,0,0,-3.8772,-3.8781,-3.8846,-3.8845,-3.8843,-3.8876,-3.8885,-3.8953,-3.8853,-3.8848,-3.8844,-3.8839,-3.8892,-3.8897,-3.8915,-3.9016,-3.9018,-3.8921,-3.8924,-3.8927,-3.8928,0,0,0,0,0,0,0,-3.8768,-3.8779,-3.8891,-3.8847,-3.8845,-3.8828,-3.8832,-3.8898,-3.889,-3.8848,-3.8843,-3.885,-3.889,-3.891,-3.8916,-3.9019,-3.8921,-3.8926,-3.8929,-3.8931,-3.9214,-3.9218,0,0,0,0,0,0,-3.8767,-3.8776,-3.8889,-3.8892,-3.8797,-3.8834,-3.8839,-3.8869,-3.889,-3.8889,-3.8853,-3.8846,-3.8902,-3.8909,-3.8917,-3.9048,-3.8927,-3.8932,-3.8935,-3.921,-3.9215,-3.9219,0,0,0,0,0,0,-3.8764,-3.8778,-3.8887,-3.8833,-3.8845,-3.884,-3.8875,-3.8872,-3.8891,-3.8893,-3.8892,-3.8874,-3.8899,-3.8909,-3.899,-3.9049,-3.8934,-3.894,-3.9205,-3.9211,-3.9217,-3.9311,0,0,0,0,0,0,-3.876,-3.8777,-3.8819,-3.8834,-3.8848,-3.8959,-3.8879,-3.8876,-3.8901,-3.8893,-3.8913,-3.8913,-3.8897,-3.8982,-3.8996,-3.9055,-3.8944,-3.9199,-3.9208,-3.9215,-3.9303,-3.932,-3.9335,0,0,0,0,0,-3.8755,-3.8843,-3.8821,-3.8835,-3.89,-3.8963,-3.8971,-3.8951,-3.8906,-3.8948,-3.895,-3.8912,-3.904,-3.8991,-3.9006,-3.9067,-3.9196,-3.9205,-3.9214,-3.9296,-3.9317,-3.9334,0,0,0,0,0,0,-3.8834,-3.8844,-3.882,-3.8916,-3.8939,-3.8951,-3.9003,-3.8974,-3.901,-3.9001,-3.8975,-3.898,-3.9067,-3.9075,-3.902,-3.9176,-3.9111,-3.9123,-3.9168,-3.9187,-3.9203,-3.92,-3.8949,0,0,0,0,0,-3.8863,-3.8913,-3.8919,-3.9003,-3.9016,-3.9008,-3.9034,-3.9017,-3.904,-3.905,-3.9057,-3.908,-3.9126,-3.9157,-3.9199,-3.9303,-3.9307,-3.9353,-3.9369,-3.9382,-3.9393,-3.9451,-3.9472,-3.925,-3.925,-3.925,0,0,-3.8923,-3.8935,-3.8968,-3.902,-3.9035,-3.9088,-3.9016,-3.9075,-3.9114,-3.9058,-3.9136,-3.9142,-3.9167,-3.9261,-3.9302,-3.927,-3.9456,-3.9394,-3.9404,-3.9409,-3.9463,-3.9484,-3.9502,-3.9256,-3.9255,-3.9254,0,0,-3.9059,-3.9073,-3.9145,-3.9163,-3.9188,-3.9182,-3.9199,-3.9216,-3.9218,-3.9295,-3.9255,-3.9301,-3.938,-3.94,-3.942,-3.9566,-3.9533,-3.958,-3.9663,-3.972,-3.9737,-3.9752,-3.9806,-3.9825,-3.9591,-3.9592,-3.9592,0,-3.9131,-3.9209,-3.9186,-3.9248,-3.9273,-3.9225,-3.9298,-3.9316,-3.9354,-3.9372,-3.9335,-3.9435,-3.9448,-3.9546,-3.9582,-3.9599,-3.962,-3.9578,-3.9736,-3.9752,-3.9766,-3.9816,-3.9836,-3.9597,-3.9597,-3.9596,-3.9596,0,-3.9296,-3.9351,-3.9406,-3.9445,-3.9475,-3.9543,-3.9531,-3.9564,-3.9545,-3.9543,-3.9623,-3.9637,-3.9682,-3.9704,-3.9685,-3.9801,-3.978,-3.974,-3.9675,-3.9793,-3.984,-3.9859,-3.9605,-3.9603,-3.9602,-3.96,0,0,-3.9484,-3.951,-3.9531,-3.9548,-3.9573,-3.9615,-3.968,-3.9725,-3.9755,-3.9782,-3.9838,-3.9906,-3.987,-3.9893,-3.9877,-3.9926,-4.0042,-3.988,-3.988,-3.9911,-4.0172,-4.0203,-4.0226,-4.002,-4.0024,-4.0027,-4.0171,0,-3.9622,-3.9736,-3.9718,-3.9828,-3.9879,-3.9835,-3.9892,-3.9914,-3.9914,-3.9958,-3.9958,-4.0008,-3.9955,-3.9969,-4.0016,-4.0018,-4.0095,-4.0008,-4.0073,-4.0076,-4.007,-4.0251,-4.0283,-4.0418,-4.0189,-4.0192,-4.0194,0,-3.9797,-3.9833,-3.9948,-3.9966,-3.9987,-4.0039,-4.0079,-4.0121,-4.0145,-4.0142,-4.0169,-4.0143,-4.021,-4.0143,-4.0235,-4.0176,-4.0201,-4.0207,-4.0211,-4.0218,-4.0143,-4.0263,-4.0461,-4.0482,-4.0223,-4.0221,-4.0219,0,-3.9925,-4.0001,-4.0081,-4.0097,-4.0119,-4.0157,-4.0168,-4.0189,-4.0217,-4.0252,-4.027,-4.0312,-4.0335,-4.0369,-4.0356,-4.0308,-4.0451,-4.0382,-4.0452,-4.0452,-4.0485,-4.0483,-4.0691,-4.0499,-4.0499,-4.0498,-4.0498,0,-4.0082,-4.0155,-4.0139,-4.0188,-4.0269,-4.0247,-4.0328,-4.0334,-4.0352,-4.0402,-4.0366,-4.0414,-4.0393,-4.0439,-4.0429,-4.0508,-4.0519,-4.0519,-4.0516,-4.0523,-4.0523,-4.054,-4.0531,-4.0504,-4.0502,-4.0501,-4.05,0,-4.0239,-4.0231,-4.0315,-4.033,-4.0335,-4.0394,-4.0407,-4.0453,-4.0451,-4.0515,-4.0528,-4.0525,-4.0578,-4.0568,-4.0626,-4.062,-4.0719,-4.0703,-4.0711,-4.0708,-4.0779,-4.0773,-4.1005,-4.1036,-4.0823,-4.0825,-4.0827,0,-4.034,-4.0395,-4.0416,-4.0447,-4.0461,-4.0511,-4.054,-4.0521,-4.0553,-4.0585,-4.0628,-4.0678,-4.0717,-4.0804,-4.0807,-4.0852,-4.0838,-4.0917,-4.0845,-4.0851,-4.0842,-4.0839,-4.0845,-4.0931,-4.0934,-4.0936,-4.0937,0,-4.052,-4.0514,-4.0557,-4.06,-4.0635,-4.0668,-4.0696,-4.0724,-4.0707,-4.0745,-4.0799,-4.083,-4.089,-4.094,-4.0982,-4.0994,-4.0964,-4.096,-4.0979,-4.0988,-4.0991,-4.0992,-4.0752,-4.0955,-4.0953,-4.0952,-4.0951,-4.095,-4.0653,-4.0701,-4.0724,-4.0774,-4.0794,-4.0822,-4.0867,-4.087,-4.0915,-4.0963,-4.0948,-4.101,-4.1034,-4.1088,-4.1104,-4.1153,-4.1124,-4.115,-4.1157,-4.1165,-4.1174,-4.0982,-4.116,-4.116,-4.1159,-4.1159,-4.1158,0,-4.0834,-4.0846,-4.0892,-4.0934,-4.0974,-4.0942,-4.0972,-4.1007,-4.1062,-4.1087,-4.1126,-4.119,-4.1239,-4.1246,-4.1293,-4.133,-4.1318,-4.1343,-4.1341,-4.1345,-4.1197,-4.1177,-4.1353,-4.1353,-4.1353,-4.1353,-4.1353,-4.1353,-4.0932,-4.1012,-4.1009,-4.1098,-4.111,-4.1171,-4.1191,-4.1218,-4.1237,-4.1309,-4.135,-4.1354,-4.1373,-4.1421,-4.1465,-4.1465,-4.1485,-4.1517,-4.1513,-4.1374,-4.1355,-4.1336,-4.1318,-4.1521,-4.1521,-4.1657,-4.1658,-4.1659]},{"header":{"parameterUnit":"m.s-1","parameterCategory":1,"la1":30.2991,"la2":30.254,"lo1":-89.0895,"lo2":-89.0444,"dy":0.0017,"dx":0.0017,"nx":28,"ny":28,"refTime":"2024-10-19T09:00:00:Z","depth":0,"parameterNumber":3,"parameterNumberName":"V-component_of_WINDS"},"data":[0,0,0,0,0,0,0,0,0,0,0,0,0,0,0,0,0,0,0,0,0,0,0,0,0,0,0,0,0,0,0,0,0,0,0,0,0,0,0,0,0,0,0,0,0,0,0,0,0,0,0,0,0,0,0,0,0,0,-2.7194,-2.7194,0,-2.7189,-2.7188,-2.7188,-2.7149,-2.7148,-2.7147,-2.7146,-2.7141,-2.7141,-2.7142,0,0,0,0,0,0,0,0,0,0,0,0,0,-2.717,-2.7171,-2.7194,-2.7194,-2.7194,-2.7189,-2.7188,-2.7188,-2.7149,-2.7148,-2.7147,-2.7146,-2.714,-2.7141,-2.7142,0,0,0,0,0,0,0,0,0,0,0,0,0,-2.7174,-2.7171,-2.7194,-2.7174,-2.7172,-2.7189,-2.7188,-2.7188,-2.7149,-2.7148,-2.7146,-2.7145,-2.714,-2.7141,-2.7142,-2.7178,0,0,-2.7146,-2.7146,0,0,0,0,0,0,0,0,-2.7174,-2.7175,-2.7177,-2.7175,-2.7173,-2.7168,-2.7178,-2.7185,-2.715,-2.7158,-2.7146,-2.7144,-2.7151,-2.7151,-2.7153,-2.7178,-2.7178,-2.7146,-2.7147,-2.7147,-2.7147,0,0,0,0,0,0,0,-2.7174,-2.7175,-2.7192,-2.7177,-2.7175,-2.7165,-2.7164,-2.7179,-2.7163,-2.7157,-2.7154,-2.7154,-2.715,-2.7152,-2.7153,-2.7178,-2.7146,-2.7147,-2.7148,-2.7148,-2.7231,-2.7233,0,0,0,0,0,0,-2.7177,-2.7175,-2.7192,-2.7192,-2.717,-2.7166,-2.7165,-2.7171,-2.7162,-2.716,-2.7155,-2.7152,-2.7151,-2.7151,-2.7152,-2.7194,-2.7147,-2.7148,-2.7149,-2.723,-2.7232,-2.7233,0,0,0,0,0,0,-2.7176,-2.7178,-2.7192,-2.7183,-2.7184,-2.7168,-2.7175,-2.7172,-2.7174,-2.7161,-2.7158,-2.7161,-2.715,-2.7151,-2.7172,-2.7193,-2.7149,-2.715,-2.7228,-2.723,-2.7232,-2.7277,0,0,0,0,0,0,-2.7176,-2.7179,-2.7192,-2.7183,-2.7184,-2.7212,-2.7176,-2.7173,-2.7176,-2.7172,-2.7165,-2.7163,-2.7149,-2.7171,-2.7173,-2.7194,-2.7151,-2.7226,-2.7229,-2.7232,-2.7273,-2.728,-2.7286,0,0,0,0,0,-2.7175,-2.7205,-2.7193,-2.7195,-2.7201,-2.7214,-2.7214,-2.7197,-2.7178,-2.7192,-2.7183,-2.7163,-2.719,-2.7173,-2.7176,-2.7197,-2.7225,-2.7228,-2.7231,-2.727,-2.7279,-2.7286,0,0,0,0,0,0,-2.7218,-2.7204,-2.719,-2.7219,-2.7218,-2.7207,-2.7224,-2.7207,-2.7211,-2.7207,-2.7186,-2.7185,-2.7209,-2.7205,-2.7186,-2.7231,-2.7204,-2.7208,-2.7233,-2.7241,-2.7247,-2.7247,-2.7151,0,0,0,0,0,-2.723,-2.7241,-2.7229,-2.7255,-2.7255,-2.7239,-2.7244,-2.7231,-2.7229,-2.7228,-2.7221,-2.722,-2.7228,-2.7234,-2.7241,-2.7272,-2.727,-2.7288,-2.7295,-2.73,-2.7304,-2.7319,-2.7327,-2.7244,-2.7244,-2.7244,0,0,-2.7257,-2.725,-2.7259,-2.7263,-2.7261,-2.7273,-2.7239,-2.7254,-2.7262,-2.7231,-2.725,-2.7245,-2.7242,-2.7268,-2.728,-2.7266,-2.7326,-2.7304,-2.7309,-2.731,-2.7324,-2.7332,-2.7339,-2.7247,-2.7246,-2.7246,0,0,-2.7311,-2.7307,-2.7328,-2.7326,-2.7323,-2.7312,-2.7317,-2.7309,-2.7304,-2.7323,-2.73,-2.7309,-2.7324,-2.7323,-2.7324,-2.7377,-2.7358,-2.7379,-2.7413,-2.7429,-2.7435,-2.7441,-2.7459,-2.7466,-2.7383,-2.7383,-2.7383,0,-2.7344,-2.7361,-2.7342,-2.7357,-2.7359,-2.7331,-2.7352,-2.7351,-2.735,-2.7352,-2.7337,-2.7354,-2.735,-2.7375,-2.7388,-2.739,-2.7395,-2.738,-2.7436,-2.7441,-2.7446,-2.7464,-2.7471,-2.7386,-2.7386,-2.7385,-2.7385,0,-2.7402,-2.7414,-2.7431,-2.743,-2.7435,-2.7453,-2.7436,-2.7443,-2.7429,-2.742,-2.7439,-2.7433,-2.7438,-2.7443,-2.743,-2.7467,-2.7458,-2.744,-2.7412,-2.7457,-2.7473,-2.7479,-2.739,-2.7389,-2.7388,-2.7387,0,0,-2.7484,-2.7471,-2.7478,-2.7477,-2.747,-2.7479,-2.7496,-2.75,-2.7506,-2.7506,-2.7519,-2.7532,-2.7514,-2.7516,-2.7502,-2.7516,-2.7557,-2.7495,-2.7495,-2.7507,-2.7596,-2.761,-2.7619,-2.7545,-2.7546,-2.7547,-2.7597,0,-2.7535,-2.7563,-2.7545,-2.7575,-2.7586,-2.7558,-2.7573,-2.757,-2.7562,-2.7569,-2.756,-2.7569,-2.7546,-2.7546,-2.7559,-2.7549,-2.7575,-2.7546,-2.7557,-2.7558,-2.7558,-2.7627,-2.7642,-2.7689,-2.7603,-2.7604,-2.7604,0,-2.7599,-2.7602,-2.7633,-2.7623,-2.7627,-2.764,-2.7642,-2.765,-2.7646,-2.7639,-2.7641,-2.7623,-2.7638,-2.7611,-2.7632,-2.7612,-2.7616,-2.7612,-2.7613,-2.7614,-2.7584,-2.7629,-2.7704,-2.7711,-2.7614,-2.7613,-2.7613,0,-2.7655,-2.7666,-2.7686,-2.7686,-2.7676,-2.7685,-2.7682,-2.7676,-2.768,-2.7682,-2.7684,-2.7687,-2.7689,-2.7693,-2.7677,-2.7658,-2.7699,-2.7671,-2.7694,-2.7694,-2.7704,-2.7704,-2.778,-2.7706,-2.7706,-2.7706,-2.7706,0,-2.7715,-2.7735,-2.7711,-2.7723,-2.7745,-2.7724,-2.7746,-2.7739,-2.7734,-2.7745,-2.7721,-2.7732,-2.771,-2.7718,-2.7705,-2.7724,-2.7725,-2.772,-2.7716,-2.7722,-2.7723,-2.7724,-2.772,-2.7708,-2.7708,-2.7707,-2.7707,0,-2.7782,-2.7766,-2.7786,-2.7774,-2.7771,-2.7788,-2.7778,-2.7788,-2.7778,-2.7791,-2.7793,-2.7777,-2.7785,-2.7769,-2.7775,-2.7767,-2.7793,-2.7785,-2.7795,-2.7792,-2.7816,-2.7814,-2.7896,-2.7906,-2.7826,-2.7827,-2.7827,0,-2.7821,-2.7835,-2.7825,-2.783,-2.7827,-2.7835,-2.7838,-2.7818,-2.7823,-2.7819,-2.783,-2.7836,-2.784,-2.7854,-2.7843,-2.7847,-2.7838,-2.7867,-2.7839,-2.7844,-2.7839,-2.7838,-2.7839,-2.7873,-2.7874,-2.7874,-2.7875,0,-2.7892,-2.7883,-2.7888,-2.7891,-2.7895,-2.7896,-2.7895,-2.7901,-2.7879,-2.7885,-2.7893,-2.7895,-2.7901,-2.7907,-2.7909,-2.7905,-2.7887,-2.7884,-2.7889,-2.7895,-2.79,-2.7898,-2.781,-2.7882,-2.7881,-2.7881,-2.7881,-2.788,-2.7946,-2.7957,-2.7951,-2.7957,-2.7954,-2.7954,-2.7963,-2.7954,-2.796,-2.7962,-2.795,-2.796,-2.7956,-2.7956,-2.7954,-2.7961,-2.7949,-2.7957,-2.7959,-2.7961,-2.7965,-2.7899,-2.7962,-2.7961,-2.7961,-2.7961,-2.7961,0,-2.8015,-2.801,-2.8015,-2.8015,-2.802,-2.8001,-2.7999,-2.8005,-2.8014,-2.8011,-2.8015,-2.8023,-2.8029,-2.8018,-2.8022,-2.803,-2.8021,-2.8031,-2.8031,-2.803,-2.7976,-2.7971,-2.8038,-2.8038,-2.8038,-2.8038,-2.8038,-2.8038,-2.8052,-2.807,-2.806,-2.8077,-2.8071,-2.808,-2.8081,-2.808,-2.8078,-2.8088,-2.8092,-2.8085,-2.8078,-2.8081,-2.8086,-2.8082,-2.8085,-2.8098,-2.8092,-2.8041,-2.8034,-2.8027,-2.8022,-2.8098,-2.8099,-2.8145,-2.8145,-2.8145]}]]